Vorticity
2 4 13 15 9 12 16 5 5 3 2 6 9 6 6 2 3 8 3 12 11 6 10 3 3 7 6 12 2 8 5 7 9 10 4 4 5 6 5 2 8 2 3 15
9 10 11 7 9 10 11 16 8 3 7 12 7 6 5 4 1 6 6 9 9 7 13 5 5 6 7 11 7 2 7 4 7 16 7 2 1 4 4 3 5 3 14 11
6 9 8 10 13 12 16 10 11 10 6 8 8 11 10 4 7 5 3 9 10 7 10 14 1 5 6 8 12 4 6 10 9 12 14 5 2 3 4 4 4 5 10 5
9 18 13 12 11 12 10 14 11 9 10 10 11 12 11 11 9 13 9 7 5 8 9 19 5 4 9 8 9 6 5 6 6 8 10 12 10 5 4 4 3 6 6 3
14 10 11 9 17 7 9 11 9 9 10 8 11 11 10 11 9 8 8 14 8 11 12 12 8 6 10 4 6 8 4 5 7 7 8 6 5 5 4 4 3 4 4 3
14 14 14 16 12 10 13 14 15 16 14 5 13 8 6 6 6 8 9 18 11 13 15 6 10 3 8 6 6 9 7 6 9 8 8 7 6 6 6 4 3 3 4 6
9 14 16 16 12 14 15 16 12 12 11 12 17 8 7 10 10 12 16 12 16 10 11 9 12 6 9 9 6 11 7 6 7 8 8 10 9 7 5 4 3 6 6 6
22 27 28 32 21 17 17 18 15 12 12 10 11 12 14 19 18 23 9 16 16 12 11 2 13 6 7 7 5 7 6 4 6 8 8 7 6 5 4 5 6 8 6 5
19 29 29 27 21 15 16 9 27 29 27 21 27 15 12 17 16 7 17 4 23 19 9 9 11 6 10 6 8 4 7 4 4 7 7 6 6 6 6 7 7 5 4 7
12 15 21 11 7 27 5 2 2 -1 5 11 17 19 20 26 14 13 4 17 17 20 9 8 9 2 8 6 10 6 7 6 6 9 8 8 8 7 6 6 4 6 7 9
6 12 18 12 23 28 20 16 15 19 15 15 19 20 19 19 -5 17 4 -2 21 21 13 11 5 11 7 8 11 7 7 6 7 8 8 7 6 6 5 6 7 9 7 7
18 0 26 5 15 11 12 9 11 7 10 24 23 35 9 17 -2 18 15 4 18 6 11 6 4 14 11 11 8 7 6 8 5 4 6 6 6 6 7 8 7 7 7 7
18 11 18 28 45 47 38 46 27 27 7 -2 1 81 50 7 5 28 -0 12 12 12 10 14 9 12 9 8 7 6 5 4 6 7 7 6 7 7 7 6 7 7 6 5
17 17 30 2 14 17 3 14 23 21 47 33 26 26 31 33 26 31 19 10 10 14 16 14 15 12 9 6 6 5 6 7 7 7 6 6 7 6 6 7 6 6 5 5
8 15 21 4 9 -7 11 36 -15 11 -1 -26 48 -3 19 2 3 12 6 15 12 4 16 13 9 8 6 5 7 8 8 6 5 6 6 6 6 7 7 7 6 5 5 9
8 11 46 28 -24 24 19 22 -9 20 22 54 50 30 9 9 27 8 10 19 17 8 7 6 6 7 9 9 7 5 6 6 5 6 6 7 8 7 6 6 4 6 11 12
8 15 20 21 7 22 4 -4 33 37 51 19 39 12 14 4 16 11 9 8 9 10 9 8 6 5 4 5 5 6 6 7 6 7 8 7 6 6 4 6 9 9 6 6
6 3 8 13 11 8 56 26 6 26 23 23 12 3 9 7 5 3 8 9 7 4 4 2 2 3 4 7 7 6 6 7 8 8 7 6 4 6 6 3 5 7 4 7
7 12 6 1 12 10 14 -2 3 6 4 11 5 3 8 5 6 3 3 5 6 4 6 4 6 8 6 5 6 7 8 9 8 7 5 5 5 4 5 8 9 1 9 4
16 12 7 13 11 4 0 3 -0 -1 4 12 7 8 7 12 11 7 10 8 7 7 8 7 4 4 6 8 10 8 6 6 7 5 4 4 5 8 10 4 5 7 4 14
1 3 5 8 7 6 6 6 5 3 6 6 8 4 3 7 7 8 5 1 4 4 5 6 7 10 12 8 6 7 8 6 5 5 6 8 10 7 5 8 5 5 19 11
6 3 -2 3 7 7 6 5 7 9 9 10 12 13 9 10 11 4 1 4 6 8 10 12 11 8 8 9 7 5 6 8 8 7 11 7 6 7 8 4 13 14 10 8
-5 4 15 12 4 16 17 13 8 6 7 11 12 15 13 11 10 10 8 8 10 12 11 10 10 8 2 6 9 6 5 8 10 6 9 8 8 4 8 16 12 10 7 5
1 10 9 2 10 10 17 15 18 15 14 11 10 12 14 14 13 13 14 12 10 8 5 3 6 9 10 6 7 7 8 10 10 8 8 5 7 12 14 11 8 6 4 2
10 14 6 8 8 12 -5 2 10 7 7 14 9 8 8 8 2 6 10 13 14 14 12 9 7 7 6 7 8 10 10 9 8 4 7 8 14 13 10 7 6 5 2 2
10 6 3 5 9 9 3 -2 12 9 8 -4 4 11 15 15 13 9 9 8 8 9 9 6 4 6 8 11 12 9 8 5 6 7 11 14 12 9 6 6 3 2 3 3
Height
5674 5676 5677 5677 5676 5675 5675 5677 5679 5683 5684 5686 5690 5694 5700 5704 5709 5713 5719 5723 5725 5729 5734 5739 5742 5745 5748 5750 5752 5754 5756 5757 5759 5761 5762 5764 5765 5766 5766 5767 5767 5765 5763 5760
5666 5667 5667 5665 5664 5663 5664 5666 5668 5672 5673 5675 5680 5685 5690 5695 5702 5706 5711 5716 5719 5722 5727 5731 5736 5738 5741 5743 5745 5748 5749 5751 5753 5755 5756 5758 5759 5760 5760 5760 5760 5758 5755 5753
5656 5658 5656 5654 5654 5652 5654 5655 5655 5658 5659 5662 5665 5673 5680 5686 5692 5698 5704 5708 5711 5715 5720 5724 5729 5731 5734 5737 5739 5741 5742 5745 5748 5749 5750 5751 5753 5753 5754 5753 5752 5751 5747 5745
5643 5647 5644 5643 5642 5641 5643 5643 5641 5642 5644 5650 5653 5658 5670 5674 5682 5689 5695 5699 5702 5707 5713 5718 5723 5726 5728 5730 5732 5734 5736 5739 5741 5743 5744 5745 5747 5747 5747 5746 5745 5743 5740 5737
5634 5633 5630 5629 5631 5627 5630 5628 5627 5628 5631 5636 5646 5641 5656 5662 5672 5680 5684 5689 5694 5698 5705 5710 5716 5718 5720 5723 5726 5728 5730 5732 5734 5736 5738 5739 5740 5740 5740 5739 5737 5735 5732 5729
5620 5619 5617 5617 5616 5614 5615 5614 5614 5615 5618 5617 5629 5628 5641 5654 5664 5668 5672 5677 5683 5689 5697 5702 5708 5710 5714 5717 5720 5721 5723 5726 5728 5730 5731 5732 5733 5733 5733 5732 5730 5727 5724 5720
5605 5605 5602 5600 5600 5599 5601 5603 5602 5601 5600 5600 5610 5614 5630 5646 5654 5658 5661 5666 5672 5679 5688 5695 5700 5705 5708 5711 5713 5714 5717 5719 5721 5724 5725 5725 5726 5725 5725 5724 5721 5719 5715 5711
5589 5588 5587 5588 5588 5589 5589 5592 5589 5587 5590 5592 5598 5603 5620 5636 5643 5649 5653 5658 5664 5670 5680 5687 5693 5697 5700 5703 5706 5708 5711 5714 5715 5717 5717 5718 5717 5717 5716 5715 5713 5710 5706 5702
5578 5575 5573 5574 5574 5578 5579 5577 5587 5577 5577 5578 5584 5600 5607 5619 5629 5640 5647 5652 5658 5665 5674 5679 5686 5691 5694 5696 5699 5702 5705 5707 5708 5710 5710 5710 5710 5709 5708 5707 5704 5701 5698 5694
5577 5571 5568 5566 5565 5567 5569 5572 5571 5569 5568 5569 5580 5586 5596 5613 5622 5631 5639 5646 5652 5657 5665 5672 5678 5683 5686 5689 5693 5697 5699 5700 5702 5703 5702 5702 5702 5701 5700 5698 5696 5693 5689 5684
5574 5571 5569 5563 5561 5563 5563 5561 5562 5561 5562 5562 5570 5574 5596 5603 5614 5623 5631 5639 5646 5652 5659 5666 5671 5676 5678 5683 5687 5690 5693 5695 5695 5695 5696 5696 5695 5694 5692 5690 5687 5683 5679 5674
5572 5567 5563 5561 5557 5556 5554 5554 5553 5553 5557 5557 5560 5566 5580 5589 5606 5614 5624 5633 5640 5645 5651 5658 5664 5669 5672 5677 5681 5684 5686 5687 5688 5689 5689 5689 5688 5686 5684 5681 5677 5674 5669 5665
5570 5564 5559 5555 5554 5550 5548 5548 5548 5549 5549 5550 5554 5557 5573 5589 5600 5610 5620 5630 5636 5640 5647 5652 5658 5663 5667 5672 5675 5677 5680 5681 5681 5682 5682 5681 5680 5678 5675 5672 5668 5664 5659 5654
5567 5562 5559 5557 5554 5553 5550 5546 5545 5545 5543 5548 5548 5559 5569 5586 5597 5604 5615 5625 5631 5636 5641 5648 5653 5657 5662 5666 5669 5672 5673 5674 5675 5675 5674 5674 5672 5669 5665 5662 5658 5653 5649 5644
5564 5560 5558 5555 5553 5552 5551 5548 5547 5548 5549 5552 5556 5564 5573 5585 5595 5601 5607 5620 5628 5633 5639 5644 5648 5652 5657 5660 5663 5666 5667 5668 5668 5667 5666 5665 5662 5660 5657 5653 5648 5644 5638 5632
5566 5562 5557 5555 5554 5553 5552 5552 5550 5550 5555 5557 5564 5572 5580 5586 5592 5602 5606 5620 5627 5632 5636 5640 5645 5649 5653 5656 5658 5660 5661 5661 5660 5660 5658 5656 5654 5651 5648 5643 5639 5633 5628 5622
5564 5560 5559 5557 5556 5556 5555 5554 5554 5555 5558 5562 5568 5575 5584 5590 5594 5601 5611 5620 5625 5630 5633 5637 5641 5645 5648 5651 5652 5654 5654 5654 5654 5653 5651 5648 5646 5642 5638 5633 5628 5623 5617 5610
5566 5564 5564 5561 5561 5560 5556 5558 5559 5562 5564 5569 5573 5581 5586 5591 5599 5608 5615 5620 5624 5628 5632 5636 5639 5642 5644 5646 5647 5648 5648 5648 5647 5645 5643 5640 5637 5633 5629 5624 5619 5612 5606 5599
5570 5568 5569 5568 5568 5566 5565 5566 5567 5570 5574 5579 5583 5588 5592 5595 5604 5611 5615 5620 5624 5627 5630 5633 5636 5638 5640 5640 5641 5642 5641 5641 5639 5637 5635 5632 5628 5624 5619 5614 5608 5602 5594 5587
5574 5574 5574 5572 5574 5573 5572 5573 5575 5576 5580 5585 5588 5591 5596 5602 5607 5612 5615 5618 5622 5625 5628 5630 5632 5633 5634 5634 5635 5635 5634 5633 5632 5629 5626 5623 5619 5614 5609 5604 5598 5591 5583 5574
5575 5576 5577 5577 5577 5579 5579 5579 5578 5580 5587 5587 5590 5595 5599 5602 5606 5610 5614 5618 5621 5623 5624 5626 5627 5628 5628 5629 5628 5628 5627 5626 5624 5621 5617 5614 5609 5605 5599 5593 5586 5579 5570 5562
5576 5578 5578 5578 5578 5581 5581 5583 5585 5586 5587 5591 5594 5597 5600 5603 5607 5610 5613 5615 5617 5618 5619 5620 5621 5622 5623 5623 5622 5622 5620 5618 5615 5612 5609 5605 5600 5595 5589 5582 5574 5567 5560 5552
5576 5578 5579 5580 5580 5580 5581 5582 5583 5585 5587 5589 5592 5595 5598 5601 5604 5606 5609 5611 5612 5614 5615 5616 5617 5617 5617 5617 5616 5614 5613 5610 5607 5603 5600 5595 5590 5584 5578 5570 5563 5555 5548 5539
5575 5576 5577 5578 5579 5580 5581 5582 5584 5585 5587 5589 5590 5593 5596 5599 5601 5603 5605 5607 5609 5610 5611 5612 5612 5612 5611 5610 5609 5607 5604 5601 5598 5594 5590 5585 5580 5573 5566 5560 5553 5545 5537 5527
5574 5575 5576 5577 5578 5580 5582 5583 5585 5586 5587 5589 5590 5592 5595 5597 5599 5601 5603 5604 5605 5606 5606 5606 5606 5606 5604 5603 5601 5598 5595 5592 5589 5585 5580 5574 5568 5562 5556 5549 5542 5533 5523 5512
5571 5573 5575 5576 5577 5579 5581 5582 5584 5585 5587 5588 5589 5591 5593 5594 5596 5598 5599 5600 5601 5601 5601 5601 5600 5599 5597 5595 5592 5590 5587 5584 5580 5575 5570 5564 5559 5553 5546 5538 5529 5519 5509 5496